Regional Weather Roundup
Issued by NWS Goodland, KS

Home | Current Version | Previous Version | Graphics & Text | Print | Product List | Glossary On
Versions: 1 2 3 4 5 6 7 8 9 10 11 12 13 14 15 16 17 18 19 20 21 22 23 24 25 26 27 28 29 30 31 32 33 34 35 36 37 38 39 40 41 42 43 44 45 46 47 48 49 50
000
ASUS43 KGLD 280608
RWRGLD

GOODLAND FORECAST AREA HOURLY WEATHER ROUNDUP
NATIONAL WEATHER SERVICE GOODLAND KS
1200 AM MDT SAT MAY 28 2016

...OFFICIAL OBSERVATIONS...

CITY           SKY/WX    TMP DP  RH WIND       PRES   REMARKS
GOODLAND KS    CLEAR     47  45  93 W9        29.86R
HILL CITY KS   CLOUDY    59  54  83 NE9       29.78R
IMPERIAL NEB   PTCLDY    53  48  83 NW14      29.84R
MCCOOK NEB     MOCLDY    54  50  86 W6        29.79R
AKRON CO       CLEAR     46  42  86 NW10      29.92S
BURLINGTON CO  PTCLDY    47  43  86 NW8       29.90R
LIMON CO       CLEAR     40  39  97 NW8       29.96S
$$

...UNOFFICIAL OBSERVATIONS...

CITY           SKY/WX    TMP DP  RH WIND       PRES   REMARKS
GOVE KS          N/A     52  32  46 MISG        N/A
LENORA KS        N/A     56  32  40 MISG        N/A
SHARON SPRINGS   N/A     48  46  93 W8          N/A
KIT CARSON CO    N/A     49  44  84 MISG        N/A
YUMA CO          N/A     47  45  93 NW7         N/A
$$



USA.gov is the U.S. government's official web portal to all federal, state and local government web resources and services.